Location: Pinon Hills
(34.4429°N, 117.6403°W)
Time: 22:27:47
(UTC-07:00)

Daily predictions for brighter satellites

Satellite Brightness Start Highest point End
(mag) Time Altitude Azimuth Time Altitude Azimuth Time Altitude Azimuth
Cosmos 1420 Rocket 4.4 20:28:13 10° N 20:33:12 46° ENE 20:38:09 10° SE
Cosmos 1452 Rocket 3.8 20:28:42 10° N 20:33:53 55° ENE 20:39:02 10° SSE
Cosmos 1844 Rocket 3.3 20:31:51 10° S 20:36:57 36° ESE 20:42:04 10° NE
YAOGAN 6 2.7 20:35:27 10° S 20:38:58 77° W 20:42:28 10° NNW
NOAA 11 4.5 20:36:35 10° SSE 20:41:48 51° ENE 20:47:02 10° N
Cosmos 1400 Rocket 3.0 20:38:24 10° S 20:42:26 81° W 20:46:26 10° N
Cosmos 1844 4.5 20:38:41 10° SSE 20:43:35 31° ESE 20:48:33 10° NE
CZ-3 Stage 3 3.1 20:42:04 10° WSW 20:44:56 51° SSE 20:54:56 10° E
Cosmos 1238 Rocket 3.6 20:43:02 10° SE 20:45:17 20° E 20:47:34 10° NE
Cosmos 1470 3.4 20:44:26 10° NNW 20:48:17 59° W 20:52:09 10° S
Lacrosse 5 2.9 20:46:28 10° WSW 20:51:24 50° NW 20:56:19 10° NNE
Cosmos 2285 Rocket 4.0 20:45:23 10° S 20:51:37 63° ESE 20:57:49 10° NNE
Cosmos 1346 Rocket 4.4 20:49:06 10° NNE 20:52:03 19° ENE 20:54:36 12° ESE
ATLAS 3B R/B 4.3 20:49:47 10° N 20:54:21 19° NE 20:58:52 10° E
Cosmos-2242 4.4 20:51:51 10° NNE 20:55:21 23° ENE 20:58:13 13° ESE
Cosmos 2266 Rocket 4.0 20:50:40 10° N 20:57:04 75° E 21:03:18 10° S
Aureole 1 Rocket 3.4 20:58:36 10° SSW 21:01:37 50° WNW 21:05:12 10° N
Meteor 1-24 Rocket 4.1 20:56:09 10° S 21:01:59 54° E 21:07:50 10° NNE
H-2A R/B 3.2 20:59:23 13° ESE 21:03:18 28° ENE 21:07:51 10° N
Cosmos 1269 Rocket 4.0 20:59:53 10° S 21:05:10 78° ESE 21:10:30 10° NNE
Timation 1 Rocket 4.4 21:00:11 10° S 21:06:00 58° ESE 21:11:50 10° NNE
Resurs 1-3 4.2 21:08:51 10° S 21:13:08 55° W 21:17:27 10° NNW
SEDSat Delta rocket 4.0 21:15:54 10° SW 21:20:52 34° SSE 21:23:43 19° ESE
Iridium 4 Rocket 3.7 21:16:10 10° S 21:21:52 84° W 21:27:10 10° N
Cosmos 1953 Rocket 3.6 21:17:54 10° S 21:22:14 85° W 21:26:38 10° N
ATLAS 2AS CENTAUR R/B 3.3 21:14:48 10° SW 21:22:29 78° WNW 21:30:39 10° NNE
In-Cosmos 22 4.3 21:17:43 10° S 21:23:14 82° W 21:28:55 10° N
Aurora 2 Rocket 4.2 21:17:57 10° SW 21:23:17 36° S 21:28:29 17° ESE
Cosmos 1437 2.9 21:20:45 10° N 21:23:52 51° E 21:25:11 28° SE
Meteor 2-5 Rocket 4.4 21:18:26 10° SSW 21:24:18 62° W 21:30:10 10° N
Cosmos 1553 Rocket 4.3 21:22:24 16° SSE 21:26:57 43° E 21:32:38 10° NNE
Cosmos 1758 Rocket 4.2 21:23:00 10° SSW 21:27:23 58° W 21:31:44 10° N
Cosmos 1674 2.9 21:25:09 20° SSE 21:27:29 50° E 21:31:12 10° NNE
MetOp-B 4.5 21:25:04 20° SE 21:28:32 49° ENE 21:33:41 10° N
ERS-1 Rocket 3.8 21:26:45 21° ESE 21:29:22 34° ENE 21:33:54 10° N
BREEZE-M R/B 4.0 21:27:39 10° W 21:29:36 17° SW 21:30:38 14° SSW
ERS-2 3.7 21:35:22 10° SSW 21:38:41 32° W 21:42:01 10° NW
Cosmos 2251 Rocket 3.9 21:37:15 21° SSE 21:40:27 44° ESE 21:45:28 10° NNE
Cosmos 1726 3.0 21:37:47 10° NNE 21:41:11 32° E 21:41:48 30° E
Resurs 01 Rocket 3.4 21:37:48 10° SSW 21:41:34 28° W 21:45:22 10° NW
Terra 3.8 21:41:23 13° E 21:42:37 14° ENE 21:45:03 10° NE
Cosmos 724 4.4 21:37:28 10° NNW 21:43:30 68° ENE 21:46:54 27° SE
Cosmos 2221 4.5 21:42:29 10° NE 21:44:47 14° ENE 21:45:02 14° ENE
Cosmos 921 Rocket 3.0 21:44:03 10° N 21:48:33 72° ENE 21:50:23 35° SSE
Iridium 81 4.0 21:49:23 54° NNE 21:49:23 54° NNE 21:51:42 10° N
USA 215 3.3 21:46:11 25° SSE 21:50:19 75° SW 21:56:54 10° NW
OAO 3 Rocket 3.2 21:45:42 10° W 21:50:41 90° NNE 21:53:18 28° E
Cosmos 1461 3.0 21:52:07 15° SSW 21:55:46 66° ESE 22:00:28 10° NE
NOSS 2-2 (E) 4.2 21:59:03 32° E 21:59:03 32° E 22:01:51 10° NE
NOSS 3-4 (A) 3.4 21:54:06 10° SSW 22:00:09 64° ESE 22:06:22 10° NE
NOSS 3-4 (C) 3.4 21:54:12 10° SSW 22:00:13 63° ESE 22:06:26 10° NE
ARGOS 3.5 21:59:19 22° S 22:02:48 62° W 22:08:12 10° NNW
Cosmos 2278 Rocket 2.1 22:00:36 23° S 22:04:09 65° ESE 22:09:47 10° NNE
Cosmos 220 Rocket 4.2 22:07:44 21° SSW 22:10:26 68° WNW 22:14:38 10° NNE
BREEZE-M DEB (TANK) 4.5 21:55:26 10° SW 22:10:30 62° SE 22:15:08 10° ENE
APEX 3.8 22:11:53 10° N 22:14:54 40° ENE 22:14:54 40° ENE
Meteor 1-21 Rocket 4.2 22:12:22 31° S 22:15:17 79° E 22:21:06 10° N
SL-08 RB Rocket 4.5 22:17:30 29° SSW 22:19:31 47° W 22:24:02 10° NNW
SL-14 R/B 3.1 22:20:17 74° E 22:20:17 74° E 22:24:08 10° N
CARTOSAT-1 4.3 22:21:01 38° ENE 22:21:05 38° ENE 22:25:05 10° N
TELKOM 3 4.5 22:18:14 10° NW 22:24:24 83° SW 22:24:59 67° SSE
Meteor 2-13 Rocket 4.3 22:19:52 10° N 22:25:58 77° E 22:27:54 46° SSE
SPOT 5 2.9 22:24:53 53° SSE 22:26:06 83° ENE 22:31:23 10° N
Cosmos 1745 Rocket 3.9 22:20:01 10° N 22:26:21 86° E 22:28:39 42° S
COSMOS 2406 3.2 22:20:59 10° NNW 22:26:45 77° WSW 22:28:30 46° S
NOSS 2-2 (D) 3.8 22:29:52 49° NE 22:29:52 49° NE 22:32:59 10° NE
Cosmos 1076 Rocket 4.2 22:32:29 40° ENE 22:32:29 40° ENE 22:35:44 10° NNE
ATLAS 5 CENTAUR R/B 1.5 22:37:13 65° SW 22:37:51 84° WNW 22:42:36 10° NNE
Cosmos 1626 3.3 22:40:50 37° NNE 22:40:50 37° NNE 22:43:15 10° NNE
Helios 1A 3.1 22:41:42 66° WSW 22:41:45 66° W 22:45:56 10° NNW
SPOT 1/Viking Rocket 3.6 22:41:25 56° SSW 22:42:24 71° WSW 22:47:33 10° NNW
H-2A R/B 3.6 22:40:01 21° SW 22:42:33 30° W 22:47:16 10° NW
ATLAS 3B R/B 2.5 22:39:09 10° NNW 22:45:45 80° WSW 22:47:23 54° SSE
Helios 1B rocket 2.6 22:42:16 10° N 22:46:21 66° WNW 22:46:22 66° WNW
Cosmos 2297 3.8 22:48:47 55° E 22:48:47 55° E 22:54:08 10° NNE
USA 238 DEB 4.1 22:43:21 10° NW 22:50:20 57° WSW 22:52:33 42° SSW
USA 238 4.1 22:43:27 10° NW 22:50:27 57° WSW 22:52:38 42° SSW
Cosmos 1340 4.2 22:48:54 10° NNW 22:52:11 29° W 22:52:11 29° W
Cosmos 1241 Rocket 4.3 22:52:17 63° SSE 22:52:55 67° ESE 22:59:06 10° NNE
Cosmos 1842 Rocket 4.4 22:49:05 10° NNW 22:53:10 40° W 22:53:33 39° WSW
NOSS 2-2 (C) 4.0 22:55:16 52° NW 22:55:16 52° NW 22:59:07 10° NNE
Cosmos 2082 Rocket 3.0 22:50:52 10° N 22:56:09 38° ENE 22:56:41 37° ENE
Cosmos 1833 Rocket 3.2 22:51:16 10° N 22:56:36 43° ENE 22:57:01 42° ENE
Cosmos 1709 Rocket 3.8 22:53:24 10° N 22:59:36 78° E 23:00:25 67° SE
ATLAS 3B CENTAUR R/B 3.4 22:42:58 10° WSW 22:59:46 53° S 23:01:25 48° SE
Landsat 7 4.2 23:00:13 53° WSW 23:00:26 53° W 23:05:05 10° NNW
NOSS 3-2 (A) 4.1 22:54:19 10° NW 23:02:07 77° WSW 23:04:29 51° S
Spot 1 4.3 23:02:42 69° NNW 23:02:42 69° NNW 23:06:45 10° NNW
CZ-2C R/B 2.6 22:57:31 10° NNE 23:02:37 67° E 23:02:37 67° E
Cosmos 1455 4.2 23:07:20 10° NNE 23:09:00 22° NNE 23:09:00 22° NNE
Cosmos 1300 4.4 23:08:45 10° NNW 23:11:27 30° WNW 23:11:27 30° WNW
Aureole 3 Rocket 4.2 23:11:17 49° SSW 23:13:34 80° W 23:19:33 10° N
Meteor 2-19 Rocket 4.3 23:08:09 10° N 23:14:18 72° E 23:14:37 70° ESE
RESURS DK-1 3.6 23:17:46 40° N 23:17:46 40° N 23:20:35 10° NNE
Terra 2.4 23:20:16 50° W 23:20:16 50° W 23:24:31 10° NNW
Okean 3 Rocket 4.4 23:21:35 46° NW 23:21:35 46° NW 23:25:14 10° N
Cosmos 2221 3.8 23:18:32 10° NNW 23:21:54 35° WNW 23:21:54 35° WNW
NOSS 3-2 (C) 4.1 23:20:17 10° NW 23:28:04 72° WSW 23:29:39 59° S
Cosmos 1992 Rocket 4.2 23:24:24 10° NNW 23:28:59 69° NNW 23:28:59 69° NNW
EO 1 Delta rocket 4.2 23:25:08 10° N 23:31:21 77° WNW 23:31:21 77° WNW
COBE Rocket 4.2 23:30:38 10° N 23:35:05 67° N 23:35:05 67° N
CZ-2C R/B 4.0 23:41:41 44° WSW 23:41:50 44° W 23:47:20 10° NNW
ADEOS Rocket 3.6 23:40:22 10° NNE 23:45:35 47° E 23:45:35 47° E
Cosmos 2184 Rocket 3.9 23:47:11 10° N 23:53:16 80° NE 23:53:16 80° NE
